Location: Bidwell Hollow
(37.7387°N, 90.1707°W)
Time: 01:45:12
(UTC+00:00)

Vanguard 1 - Visible Passes

Search period start: 12 May 2026 00:00
Search period end: 22 May 2026 00:00
Orbit: 654 x 3817 km, 34.3° (Epoch: 11 May)

Date Brightness Start Highest point End Pass type
(mag) Time Alt. Az. Time Alt. Az. Time Alt. Az.
12 May 12.3 01:20:34 10° W 01:33:09 78° S 01:54:58 10° ESE visible
12 May 12.7 03:41:53 10° W 03:58:28 61° SSW 04:09:24 38° SE visible
12 May 13.2 06:06:20 10° W 06:21:53 32° SW 06:21:53 32° SW visible
13 May 12.4 01:39:54 10° W 01:52:50 76° S 02:14:12 11° ESE visible
13 May 12.8 04:01:27 10° W 04:18:04 54° SSW 04:26:41 40° SSE visible
13 May 13.5 06:27:11 10° W 06:39:10 25° SW 06:39:10 25° SW visible
14 May 12.4 01:59:14 10° W 02:12:30 72° SSW 02:31:33 16° ESE visible
14 May 12.9 04:21:09 10° W 04:37:34 47° SSW 04:44:03 40° S visible
14 May 13.7 06:49:01 10° W 06:56:32 17° WSW 06:56:32 17° WSW visible
15 May 12.5 02:18:36 10° W 02:32:09 66° SSW 02:48:58 21° SE visible
15 May 13.1 04:41:02 10° W 04:57:02 39° SW 05:01:28 37° SSW visible
15 May 13.9 07:13:16 10° WSW 07:13:58 10° WSW 07:13:58 10° WSW visible
16 May 12.5 02:38:01 10° W 02:51:46 60° SSW 03:06:28 25° SE visible
16 May 13.2 05:01:14 10° W 05:16:26 32° SW 05:18:58 31° SSW visible
17 May 12.7 02:57:31 10° W 03:11:21 52° SSW 03:24:01 28° SSE visible
17 May 13.4 05:21:57 10° W 05:35:48 25° SW 05:36:33 25° SW visible
18 May 12.8 03:17:07 10° W 03:30:53 45° SSW 03:41:39 29° SSE visible
18 May 13.6 05:43:36 10° WSW 05:54:10 18° SW 05:54:10 18° SW visible
19 May 12.2 01:15:26 10° W 01:26:22 64° SSW 01:45:57 10° ESE visible
19 May 13.0 03:36:55 10° W 03:50:25 37° SSW 03:59:20 28° S visible
19 May 13.8 06:07:40 10° WSW 06:11:51 12° SW 06:11:51 12° SW visible
20 May 12.4 01:34:47 10° W 01:45:54 57° SSW 02:04:33 11° SE visible
20 May 13.2 03:57:03 10° W 04:09:55 30° SW 04:17:05 25° S visible
21 May 12.5 01:54:12 10° W 02:05:27 49° SSW 02:22:21 14° SE visible
21 May 13.4 04:17:42 10° W 04:29:26 23° SW 04:34:53 21° SSW visible
